Powrót do katalogu

STARLINK-31877

AktywnyŁącznośćVLEO
NORAD 59675·PAYLOAD·🇺🇸 United States

Wystrzelony May 6, 2024 z Cape Canaveral Space Force Station

Loading…

Następne Przeloty (najbliższe 24 godziny)

TLE

ŚwieżeSource: CelesTrak SupGP

Epoka: Sep 14, 2026, 22:51 UTC

1 59675C 24084X   26257.95256944  .00046120  00000+0  16708-2 0  2579
2 59675  43.0010  53.0550 0001483 276.1687 206.7920 15.27549345    15

Śledź STARLINK-31877 w czasie rzeczywistym z AllMySat

Download on the App Store